Regional Weather Roundup
Issued by NWS

Home | Current Version | Previous Version | Text Only | Print | Product List | Glossary On
Versions: 1 2 3 4 5 6 7 8 9 10 11 12 13 14 15 16 17 18 19 20 21 22 23 24 25 26 27 28 29 30 31 32 33 34 35 36 37 38 39 40 41 42 43 44 45 46 47 48 49 50
000
ASUS44 KJAN 051510
RWRMS

MISSISSIPPI HOURLY WEATHER ROUNDUP
NATIONAL WEATHER SERVICE JACKSON MS
900 AM CST THU MAR 05 2015

NOTE: "FAIR: INDICATES FEW OR NO CLOUDS BELOW 12,000 FEET WITH NO
SIGNIFICANT WEATHER AND/OR OBSTRUCTIONS TO VISIBILITY.

MSZ001>002-007>008-010>013-018>021-025>028-034>036-051600-
NORTHWEST MISSISSIPPI

CITY           SKY/WX    TMP DP  RH WIND       PRES   REMARKS
CLARKSDALE     PTSUNNY   25  19  80 CALM      30.49R
CLEVELAND      CLOUDY    25  21  86 N23G29    30.48R WCI   9
GREENWOOD      CLOUDY    27  21  78 N15G25    30.41R WCI  15
GREENVILLE     CLOUDY    25  19  78 MISG      30.47R
OLIVE BRANCH   CLOUDY    21  21 100 N13G24    30.44R WCI   9
OXFORD         CLOUDY    21  18  86 N13G20    30.41R WCI   9
TUNICA         CLOUDY    25  21  86 N9        30.48R WCI  15
$$

MSZ003>006-009-014>017-022>024-029>033-037>039-051600-
NORTHEAST MISSISSIPPI

CITY           SKY/WX    TMP DP  RH WIND       PRES   REMARKS
COLUMBUS AFB   LGTSLEET  28  25  86 N14       30.26R VSB 1   WCI  17
CORINTH        LGT RAIN  23  18  80 N13       30.36R WCI  11
GOLDN TRIANGLE LGTSLEET N/A N/A N/A N15G22    30.26R
STARKVILLE     LGT SNOW  28  27  93 CALM      30.32R
TUPELO         CLOUDY    26  20  77 NE21G31   30.32R WCI  12
$$

MSZ040-058-051600-
CENTRAL MISSISSIPPI

CITY           SKY/WX    TMP DP  RH WIND       PRES   REMARKS
JACKSON INTL   LGTSLEET  32  30  92 N16G22    30.30R FOG     WCI  21
JACKSON HAWKNS MIX PCPN  30  27  88 N9G20     30.32R FOG     WCI  22
MERIDIAN KEY   LGT RAIN  35  35 100 N12       30.25R WCI  27
MERIDIAN NAS   LGT RAIN  35  33  92 N9        30.24R WCI  28
VICKSBURG      CLOUDY    28  23  81 N22G31    30.40R WCI  14
$$

MSZ059>079-051600-
SOUTH MISSISSIPPI

CITY           SKY/WX    TMP DP  RH WIND       PRES   REMARKS
BROOKHAVEN     LGT RAIN  34  34 100 CALM      30.28R
HATTIESBURG    LGT RAIN  39  37  92 N9        30.23R WCI  33
MCCOMB         CLOUDY    35  32  88 N14G26    30.23R WCI  26
NATCHEZ        NOT AVBL
PINE BELT      CLOUDY    37  34  87 N13G20    30.23R WCI  29
$$

MSZ080>082-051600-
COASTAL MISSISSIPPI

CITY           SKY/WX    TMP DP  RH WIND       PRES   REMARKS
BAY ST LOUIS   CLOUDY    43  36  75 N17G29    30.17R
BILOXI         NOT AVBL
PASCAGOULA     CLOUDY    47  43  86 N18G31    30.14R
GULFPORT       CLOUDY    44  39  82 N20G32    30.16R
$$



USA.gov is the U.S. government's official web portal to all federal, state and local government web resources and services.